Showing default

JILIN-01 GAOFEN 3H, 46460

Orbit data source: Space-Track

JILIN-01 GAOFEN 3H, 46460 is a payload satellite owned by Changguang WJ (CN) in SSO that was launched on Tue, 15 Sep 2020 UTC via a CHANG ZHENG 11 launch vehicle from the Yellow Sea Launch Area, China (YSLA). Payload-class satellites include a variety of spacecraft equipped with specific instruments for various scientific and technological missions. These include communications satellites like Starlink; space stations such as the ISS; scientific satellites like the Hubble; Earth observation satellites from companies like Planet Labs, Umbra, and HawkEye 360; GPS; miniature CubeSats for education and research; and military/defense satellites.

Loading next visibility...
Identifier
46460, 2020-065G
Orbit
SSO
Last TLE update
4 hours ago
Origin
Flag of CNCGSTL (CN / PRC)
Manufacturer
Changguang WJ
Mission
Operational Commercial Imaging
Bus & Motor
JL-1, Unknown motor
Mass
42 kg wet, 42 kg dry
Launch date (UTC)
2020-09-15 (5 years ago)
Launch vehicle
CHANG ZHENG 11
Launch site
Yellow Sea Launch Area, China (YSLA)
Object type
Payload
Rocket body
Debris
Shape & HBR
Box + 2 Pan, 1.5 m
Radar Cross Section
2.000 m², Medium (>0.1 m² and < 1m²)

Expand to show TLE details & history

TLE from 4 hours ago
0 JILIN-01 GAOFEN 3H
1 46460U 20065G   25186.18788240  .00018908  00000-0  49433-3 0  9995
2 46460  97.2794 231.8087 0013157 165.2930 194.8701 15.38714448266113
Epoch: 2025-07-05T04:30Z
TLE epoch observation values (Epoch: 2025-07-05T04:30:33.039Z)
Latitude
-0.00002°
Longitude
-119.25848°
Altitude
461.715 km
Speed
7.631 km/s
True Right ascension
15h 27m 14s
True Declination
0° 00' 00"
Sunlit
Object was in full shadow at epoch
Visualization orbit readout
Latitude
5.27586°
Longitude
61.57403°
Altitude
443.627 km
Speed
7.651 km/s
Apparent Right ascension
05h 27m 09s
Apparent Declination
-19° 51' 29"
Sunlit
Object is in daylight
Visualization observer readout
Local Sidereal Time
20:17:05
Azimuth
73.802° E
Elevation
-48.586°
Doppler factor
1
Orbital elements
Apogee altitude
455.825 km
Perigee altitude
437.866 km
Semi-major axis
6,824.982 km
Eccentricity
0.00132
Inclination
97.2794°
RAAN
231.8087°
Arg. of periapsis
165.293°
True anomaly
Unknown
Mean anomaly
194.8701°
Eccentric anomaly
Unknown
Mean motion
3.84938 °/min
Orbital period
93.52 mins
BSTAR
0.00049433
Loading maneuver chart data...
Loading SW <> Apogee altitude chart data...
Loading historical data...
Loading historical data...
Loading historical data...
Loading historical data...
Loading historical data...
Loading historical data...
Loading historical data...

JILIN-01 GAOFEN 3H Visibility forecast

Observer location: undefined°, undefined°

Span
Click to sort rows by Start time (UTC) header in descending order
Start Az.
Max El. time (UTC)
Max El. Az.
Max El.
End time (UTC)
End Az.
6 mins2025-07-05 15:59:12.489Z8.983° NNE2025-07-05 16:02:12.489Z317.119° NNW44.214°2025-07-05 16:05:12.489Z197.01° SSW
4 mins2025-07-06 02:31:12.489Z108.402° ESE2025-07-06 02:32:12.489Z82.164° E23.461°2025-07-06 02:35:12.489Z15.496° NNE
|